Regional Weather Roundup
Issued by NWS Northern Indiana

Home | Current Version | Previous Version | Text Only | Print | Product List | Glossary On
Versions: 1 2 3 4 5 6 7 8 9 10 11 12 13 14 15 16 17 18 19 20 21 22 23 24 25 26 27 28 29 30 31 32 33 34 35 36 37 38 39 40 41 42 43 44 45 46 47 48 49 50
000
ASUS43 KIWX 201910
RWRIWX

KIWX WEATHER ROUNDUP
NATIONAL WEATHER SERVICE NORTHERN INDIANA
300 PM EDT WED AUG 20 2014

NOTE: "FAIR" INDICATES FEW OR NO CLOUDS BELOW 12,000 FEET WITH NO
SIGNIFICANT WEATHER AND/OR OBSTRUCTIONS TO VISIBILITY.

* THESE STATIONS ARE NOT UNDER NWS QUALITY CONTROL. THEY ALSO MAY NOT
  REPORT WEATHER SUCH AS PRECIPITATION OR FOG.

INZ001>027-202000-
NORTHERN INDIANA

CITY           SKY/WX    TMP DP  RH WIND       PRES   REMARKS
GARY*          PTSUNNY   84  64  51 SW12      29.92F
VALPARAISO     MOSUNNY   83  65  54 W13G23    29.93F
MICHIGAN CITY* MOSUNNY   81  64  57 W6        29.92F
LAPORTE*       MOSUNNY   82  65  57 W13       29.93F
KNOX*          MOSUNNY   83  66  56 SW10      29.92F
SOUTH BEND     MOSUNNY   84  32  15 W12       29.93F
GOSHEN         MOSUNNY   85  65  51 W20G25    29.93S
MONTICELLO*    PTSUNNY   82  69  66 SW10      29.94F
LOGANSPORT*    PTSUNNY   82  61  47 W9        29.96F
ROCHESTER*     SUNNY     86  64  48 SW12G21   29.94F
WARSAW*        MOSUNNY   82  66  57 W9        29.94S
ANGOLA*        MOSUNNY   82  77  83 W10       29.93S
FORT WAYNE     MOSUNNY   83  66  56 W16       29.94F
HUNTINGTON*    MOSUNNY   83  66  56 W10G18    29.95S
PERU/GRISSOM   MOSUNNY   85  66  52 W16       29.96F
MARION*        PTSUNNY   83  63  50 W13G22    29.98S HAZE

$$
INZ028>050-202000-
CENTRAL INDIANA

CITY           SKY/WX    TMP DP  RH WIND       PRES   REMARKS
LAFAYETTE      CLOUDY    79  70  74 S8        29.94F
KOKOMO*        PTSUNNY   84  64  51 W16       29.97S
MUNCIE*        PTSUNNY   83  65  54 W14G24    29.98R
INDIANAPOLIS   CLOUDY    76  64  66 W24G32    29.99S

$$
MIZ043>046-050>051-056>058-064>065-071>073-077>080-202000-
SOUTHWEST LOWER MICHIGAN

CITY           SKY/WX    TMP DP  RH WIND       PRES   REMARKS
BATTLE CREEK   MOSUNNY   79  63  57 W13       29.93R
BENTON HARBOR  MOSUNNY   80  63  55 VRB7      29.92F
COLDWATER*     CLOUDY    82  65  57 W12G18    29.92F
HILLSDALE*     MOSUNNY   81  66  61 W8        29.93S
HOLLAND        SUNNY     78  66  66 W13       29.94R
GRAND RAPIDS   PTSUNNY   79  66  64 W18       29.91R
KALAMAZOO      PTSUNNY   84  62  47 W16G24    29.93R
STURGIS*       MOSUNNY   81  64  57 W10       29.93S
THREE RIVERS*  FAIR      80  65  61 W10       29.93S

$$
OHZ001>008-015>018-024>025-202000-
NORTHWEST OHIO

CITY           SKY/WX    TMP DP  RH WIND       PRES   REMARKS
WAUSEON*       FAIR      81  68  65 W12       29.92R
DEFIANCE       PTSUNNY   83  64  52 SW12G20   29.92S
FINDLAY        MOSUNNY   84  66  54 SW15G22   29.93R
TOLEDO EXPRESS PTSUNNY   83  65  54 SW16G24   29.90R
TOLEDO METCALF PTSUNNY   83  64  52 SW13      29.91R
LIMA           MOSUNNY   82  69  64 W12       29.95R

$$
&&


USA.gov is the U.S. government's official web portal to all federal, state and local government web resources and services.